TimeCST,TemperatureF,Dew PointF,Humidity,Sea Level PressureIn,VisibilityMPH,Wind Direction,Wind SpeedMPH,Gust SpeedMPH,PrecipitationIn,Events,Conditions,WindDirDegrees,DateUTC
12:53 AM,39.0,34.0,82,30.16,10.0,Calm,Calm,-,N/A,,Clear,0,2012-12-12 06:53:00
1:53 AM,39.9,35.1,83,30.16,10.0,North,4.6,-,N/A,,Clear,350,2012-12-12 07:53:00
2:53 AM,39.9,34.0,79,30.16,10.0,NNW,5.8,-,N/A,,Clear,340,2012-12-12 08:53:00
3:53 AM,39.9,34.0,79,30.15,10.0,North,11.5,-,N/A,,Clear,360,2012-12-12 09:53:00
4:53 AM,41.0,33.1,73,30.17,10.0,NNE,11.5,-,N/A,,Overcast,20,2012-12-12 10:53:00
5:53 AM,39.9,33.1,77,30.17,10.0,NNE,8.1,-,N/A,,Mostly Cloudy,20,2012-12-12 11:53:00
6:53 AM,39.0,33.1,79,30.18,10.0,North,5.8,-,N/A,,Clear,360,2012-12-12 12:53:00
7:53 AM,39.9,33.1,77,30.21,10.0,North,5.8,-,N/A,,Clear,360,2012-12-12 13:53:00
8:53 AM,43.0,34.0,71,30.22,10.0,North,8.1,-,N/A,,Clear,10,2012-12-12 14:53:00
9:53 AM,48.0,34.0,58,30.23,10.0,North,11.5,-,N/A,,Clear,10,2012-12-12 15:53:00
10:53 AM,51.1,32.0,48,30.22,10.0,North,10.4,16.1,N/A,,Clear,10,2012-12-12 16:53:00
11:53 AM,54.0,30.0,40,30.20,10.0,NNE,6.9,-,N/A,,Clear,20,2012-12-12 17:53:00
12:53 PM,57.0,27.0,32,30.18,10.0,North,10.4,-,N/A,,Clear,350,2012-12-12 18:53:00
1:53 PM,60.1,24.1,25,30.17,10.0,North,10.4,16.1,N/A,,Clear,360,2012-12-12 19:53:00
2:53 PM,60.1,18.0,20,30.18,10.0,North,10.4,17.3,N/A,,Clear,360,2012-12-12 20:53:00
3:53 PM,57.9,21.0,24,30.19,10.0,North,10.4,-,N/A,,Clear,350,2012-12-12 21:53:00
4:53 PM,52.0,24.1,34,30.19,10.0,NNW,4.6,-,N/A,,Clear,340,2012-12-12 22:53:00
5:53 PM,48.9,25.0,39,30.21,10.0,NNW,3.5,-,N/A,,Clear,330,2012-12-12 23:53:00
6:53 PM,39.9,28.9,65,30.23,10.0,Calm,Calm,-,N/A,,Clear,0,2012-12-13 00:53:00
7:53 PM,34.0,28.0,79,30.26,10.0,Calm,Calm,-,N/A,,Clear,0,2012-12-13 01:53:00
8:53 PM,33.1,28.0,82,30.27,10.0,Calm,Calm,-,N/A,,Clear,0,2012-12-13 02:53:00
9:53 PM,35.1,28.9,78,30.28,10.0,NNW,3.5,-,N/A,,Clear,340,2012-12-13 03:53:00
10:53 PM,37.9,28.9,70,30.30,10.0,NNW,3.5,-,N/A,,Clear,340,2012-12-13 04:53:00
11:53 PM,36.0,28.9,76,30.29,10.0,North,4.6,-,N/A,,Clear,350,2012-12-13 05:53:00